Weather History for Plattsburgh, NY

Change the Weather History Date:

Tuesday, January 29, 2013

  Actual Average Record
Temperature  
Mean Temperature 28 °F 16 °F  
Max Temperature 36 °F 27 °F 46 °F (1950)
Min Temperature 20 °F 6 °F -14 °F (1971)
Degree Days  
Heating Degree Days 37 48  
Month to date heating degree days 1365 1395  
Since 1 July heating degree days 4024 4281  
Moisture  
Dew Point 23 °F    
Average Humidity 87    
Maximum Humidity 92    
Minimum Humidity 81    
Precipitation  
Precipitation 0.10 in - 0.70 in (1957)
Month to date precipitation 0.41  
Year to date precipitation 0.41  
Sea Level Pressure  
Sea Level Pressure 30.05 in    
Wind  
Wind Speed 3 mph (East)    
Max Wind Speed 16 mph    
Max Gust Speed 23 mph    
Visibility 7 miles    
Events Snow    
T = Trace of Precipitation, MM = Missing Value Source: NWS Daily Summary

Daily Weather History Graph

Daily Weather History Graph

Search for Another Location

Airport:

Trip Planner

Search our weather history database for the weather conditions in past years. The results will help you decide how hot, cold, wet, or windy it might be!

Date:

Astronomy

Jan. 29, 2013 Rise Set
Actual Time 7:15 AM EST 4:58 PM EST
Civil Twilight 6:44 AM EST 5:30 PM EST
Nautical Twilight 6:09 AM EST 6:05 PM EST
Astronomical Twilight 5:35 AM EST 6:39 PM EST
Moon 8:01 PM EST (1/29) 8:03 AM EST (1/29)
Length of Visible Light 10h 45m
Length of Day
9h 42m
Waning Gibbous, 94% of the Moon is Illuminated
Jan 29
Waning Gibbous
Feb 3
Last Quarter
Feb 10
New
Feb 17
First Quarter
Feb 25
Full

Hourly Weather History & Observations

Time (EST) Temp. Windchill Dew Point Humidity Pressure Visibility Wind Dir Wind Speed Gust Speed Precip Events Conditions
12:13 AM 23.0 °F - 21.2 °F 93% 30.01 in 8.0 mi Calm Calm - 0.00 in Snow Light Snow
12:53 AM 21.9 °F - 19.9 °F 92% 30.04 in 6.0 mi Calm Calm - 0.00 in Snow Light Snow
1:02 AM 21.2 °F 14.9 °F 19.4 °F 93% 30.01 in 5.0 mi North 4.6 mph - 0.00 in Snow Light Snow
1:53 AM 23.0 °F 18.4 °F 21.0 °F 92% 30.06 in 10.0 mi NW 3.5 mph - 0.00 in   Overcast
2:53 AM 23.0 °F - 19.9 °F 88% 30.07 in 10.0 mi Calm Calm - N/A   Overcast
3:53 AM 23.0 °F - 19.9 °F 88% 30.08 in 9.0 mi Calm Calm - N/A   Overcast
4:53 AM 23.0 °F 18.4 °F 19.9 °F 88% 30.09 in 8.0 mi NNW 3.5 mph - N/A   Overcast
5:53 AM 21.0 °F 16.2 °F 19.0 °F 92% 30.11 in 6.0 mi NE 3.5 mph - N/A   Overcast
6:53 AM 19.9 °F 13.4 °F 18.0 °F 92% 30.11 in 8.0 mi NE 4.6 mph - N/A   Overcast
7:53 AM 21.0 °F - 18.0 °F 88% 30.14 in 6.0 mi Calm Calm - N/A   Overcast
8:53 AM 21.9 °F - 19.9 °F 92% 30.18 in 4.0 mi Calm Calm - N/A   Overcast
9:53 AM 21.9 °F - 19.9 °F 92% 30.18 in 5.0 mi Calm Calm - N/A   Overcast
10:53 AM 23.0 °F 17.0 °F 19.9 °F 88% 30.18 in 5.0 mi NNE 4.6 mph - N/A   Overcast
11:15 AM 23.0 °F - 19.4 °F 86% 30.17 in 5.0 mi Calm Calm - N/A   Overcast
11:53 AM 23.0 °F - 19.9 °F 88% 30.16 in 5.0 mi Calm Calm - N/A   Overcast
12:53 PM 26.1 °F - 21.9 °F 84% 30.12 in 6.0 mi Calm Calm - N/A   Overcast
1:20 PM 26.6 °F - 23.0 °F 86% 30.09 in 6.0 mi Calm Calm - N/A   Overcast
1:53 PM 25.0 °F 20.7 °F 21.9 °F 88% 30.07 in 6.0 mi ESE 3.5 mph - N/A   Overcast
2:53 PM 26.1 °F - 23.0 °F 88% 30.06 in 7.0 mi Calm Calm - N/A   Overcast
3:53 PM 27.0 °F 21.6 °F 24.1 °F 89% 30.07 in 7.0 mi NNW 4.6 mph - N/A   Overcast
4:53 PM 30.0 °F 23.2 °F 27.0 °F 88% 30.04 in 6.0 mi SSE 6.9 mph - N/A   Overcast
5:53 PM 30.9 °F 25.2 °F 28.0 °F 89% 30.03 in 8.0 mi South 5.8 mph - N/A   Overcast
6:53 PM 28.9 °F - 27.0 °F 92% 30.01 in 7.0 mi Calm Calm - N/A   Overcast
7:53 PM 28.9 °F - 27.0 °F 92% 29.96 in 6.0 mi Calm Calm - 0.00 in   Overcast
8:53 PM 30.0 °F - 28.0 °F 92% 29.95 in 6.0 mi Calm Calm - 0.00 in   Overcast
9:26 PM 30.2 °F 26.7 °F 28.4 °F 93% 29.92 in 7.0 mi South 3.5 mph - N/A   Overcast
9:53 PM 33.1 °F - 30.9 °F 92% 29.93 in 9.0 mi Calm Calm - N/A   Overcast
10:36 PM 35.6 °F 28.6 °F 32.0 °F 87% 29.90 in 9.0 mi South 9.2 mph - N/A   Overcast
10:53 PM 35.1 °F 25.5 °F 33.1 °F 92% 29.91 in 10.0 mi SSE 15.0 mph - 0.01 in   Overcast
11:53 PM 36.0 °F 28.0 °F 33.1 °F 89% 29.91 in 10.0 mi SSE 11.5 mph - 0.09 in   Overcast